Weather Roundup
Issued by NWS Chicago, IL

Home | Current Version | Previous Version | Text Only | Print | Product List | Glossary Off
Versions: 1 2 3 4 5 6 7 8 9 10 11 12 13 14 15 16 17 18 19 20 21 22 23 24 25 26 27 28 29 30 31 32 33 34 35 36 37 38 39 40 41 42 43 44 45 46 47 48 49 50

000
NZUS59 KLOT 211506
HRRLOT

CHICAGO AREA WEATHER ROUNDUP
NATIONAL WEATHER SERVICE CHICAGO/ROMEOVILLE IL
1000 AM CDT THU AUG 21 2014

NOTE: "FAIR" INDICATES FEW OR NO CLOUDS BELOW 12,000 FEET WITH NO
SIGNIFICANT WEATHER AND/OR OBSTRUCTIONS TO VISIBILITY.

* THESE STATIONS ARE NOT UNDER NWS QUALITY CONTROL. THEY ALSO MAY NOT
  REPORT WEATHER SUCH AS PRECIPITATION OR FOG.

ILZ005-006-012>014-019>023-211600-
NORTHEAST ILLINOIS

CITY           SKY/WX    TMP DP  RH WIND       PRES   REMARKS
OHARE          CLOUDY    72  68  87 S9        29.93F
MIDWAY         CLOUDY    74  72  93 S7        29.95F
AURORA         CLOUDY    74  70  87 S9        29.95S FOG
LANSING*       LGT RAIN  71  70  96 S8        29.96F
JOLIET*        CLOUDY    72  69  92 S9        29.97S
WAUKEGAN       CLOUDY    73  69  87 SE3       29.93F
DUPAGE AIRPORT CLOUDY    73  71  93 S9        29.94F
WHEELING       CLOUDY    74  71  91 S6        29.95F
KANKAKEE*      CLOUDY    73  71  96 SE6       29.99F
MORRIS*        CLOUDY    74  74  97 S7        29.96F
LEWIS AIRPORT* CLOUDY    72  72 100 S10       29.96S
NORTHERLY IS     N/A     72  69  90 S6          N/A
$$

WIZ051-052-058>065-066-070>072-211600-
SOUTHEAST WISCONSIN

CITY           SKY/WX    TMP DP  RH WIND       PRES   REMARKS
MILWAUKEE      CLOUDY    73  67  81 NE9       29.95S
KENOSHA*       CLOUDY    76  68  76 S5        29.94F
RACINE*        CLOUDY    75  68  78 E5        29.96F
BURLINGTON     CLOUDY    71  68  89 SW5       29.95R
WAUKESHA       MOSUNNY   70  64  83 SE5       29.95F
WEST BEND      CLOUDY    70  64  83 E3        29.96R
$$

INZ001>003-010>013-019-020-211600-
NORTHWEST INDIANA

CITY           SKY/WX    TMP DP  RH WIND       PRES   REMARKS
GARY*          LGT RAIN  73  72  94 S7        29.96F
MICHIGAN CITY* NOT AVBL
RENSSELAER*    NOT AVBL
VALPARAISO     LGT RAIN  70  69  97 S6        29.98F
$$

LMZ740>746-211600-
SOUTHERN LAKE MICHIGAN

STATION/POSITION TIME  SKY/WX   TEMP WIND        PRES    VSBY
                                AIR  DIR/SP/G
                 (UTC)          (F)  (DEG/KT/KT) (MB)    (MI)
HARRISON CRIB    1500            71  150/ 14/ 17   N/A
BURNHAM HARBOR   1500            72  190/  5/  9   N/A
CALUMET HARBOR   1500            72  180/  2/  4 1013.0F
BURNS HARBOR     1400            72  240/  9/ 18   N/A
MICHIGAN CITY    1500            71  180/  6/  8   N/A
$$

ABBREVIATIONS USED IN REMARKS
   TC - TEMPERATURE IN CELSIUS
  WCI - WIND CHILL INDEX
   HX - HEAT INDEX
  VSB - VISIBILITY
$$



USA.gov is the U.S. government's official web portal to all federal, state and local government web resources and services.